{"data":{"norad_id":67633,"epoch":"2026-05-25T01:25:55.983936Z","epoch_age_seconds":80105,"freshness":"FRESH","line1":"1 67633U 26020S   26145.05967574  .00015088  00000+0  55642-3 0  9992","line2":"2 67633  43.0015  68.4611 0000998 283.6162  76.4579 15.27596022 17791","mean_motion":15.27596022,"eccentricity":9.98e-5,"inclination_deg":43.0015,"raan_deg":68.4611,"arg_perigee_deg":283.6162,"mean_anomaly_deg":76.4579,"bstar":0.00055642,"rev_number":1779,"period_min":94.265760008637,"perigee_km":482.31637924263,"apogee_km":483.68586241155,"semimajor_km":6861.1381208271,"source":"CELESTRAK","updated_at":"2026-05-25T13:38:21.652656Z"}}